Location: Cudham
(51.3000°N, 0.0667°E)
Time: 20:21:20
(UTC+00:00)

Cosmos 2084 Rocket - Pass Details

Date: 19 May 2025
Orbit: 542 x 578 km, 62.8° (Epoch: 21 June)

Event Time Altitude Azimuth Distance (km) Brightness Sun altitude
Rises 21:53:39 0° 218° (SW) 2,780 6.7 -13.8°
Reaches altitude 10° 21:55:53 10° 217° (SW) 1,881 5.8 -14.0°
Maximum altitude 22:00:07 74° 133° (SE) 601 3.3 -14.3°
Drops below altitude 10° 22:04:20 10° 48° (NE) 1,875 6.2 -14.6°
Sets 22:06:34 0° 47° (NE) 2,769 7.1 -14.8°
